Weather History for KOZR - June, 2013

Change the Weather History Date:

Monday, June 3, 2013

  Actual Average (KDHN) Record (KDHN)
Temperature  
Mean Temperature 78 °F 78 °F  
Max Temperature 89 °F 89 °F 102 °F (2011)
Min Temperature 70 °F 67 °F 49 °F (1956)
Cooling Degree Days 14 13  
Month to date cooling degree days 39  
Year to date cooling degree days 452  
Since 1 June cooling degree days 39  
Growing Degree Days 28 (Base 50)    
Moisture  
Dew Point 72 °F    
Average Humidity 86    
Maximum Humidity 100    
Minimum Humidity 55    
Precipitation  
Precipitation 0.00 in 0.18 in 1.13 in (2005)
Month to date precipitation 0.52  
Year to date precipitation 22.88  
Sea Level Pressure  
Sea Level Pressure 29.92 in    
Wind  
Wind Speed 3 mph (SE)    
Max Wind Speed 10 mph    
Max Gust Speed -    
Visibility 10 miles    
Events Rain    
T = Trace of Precipitation, MM = Missing Value Source: NWS Daily Summary

Daily Weather History Graph

Daily Weather History Graph

Search for Another Location

Airport or City:

Trip Planner

Search our weather history database for the weather conditions in past years. The results will help you decide how hot, cold, wet, or windy it might be!

Date:

Astronomy

Jun. 03, 2013 Rise Set
Actual Time 5:38 AM CDT 7:43 PM CDT
Civil Twilight 5:11 AM CDT 8:11 PM CDT
Nautical Twilight 4:37 AM CDT 8:44 PM CDT
Astronomical Twilight 4:01 AM CDT 9:20 PM CDT
Moon 2:20 AM CDT (6/3) 3:27 PM CDT (6/3)
Length of Visible Light 15h 00m
Length of Day
14h 04m
Waning Crescent, 22% of the Moon is Illuminated
Jun 3
Waning Crescent
Jun 8
New
Jun 16
First Quarter
Jun 23
Full
Jun 29
Last Quarter

Hourly Weather History & Observations

Time (CDT) Temp. Heat Index Dew Point Humidity Pressure Visibility Wind Dir Wind Speed Gust Speed Precip Events Conditions
12:04 AM 71.6 °F - 71.6 °F 100% 29.94 in 10.0 mi SSW 1.2 mph - N/A   Overcast
12:58 AM 71.8 °F - 70.9 °F 97% 29.92 in 10.0 mi Calm Calm - N/A   Mostly Cloudy
1:10 AM 71.6 °F - 71.6 °F 100% 29.91 in 10.0 mi Calm Calm - N/A Rain Light Rain
1:24 AM 71.6 °F - 71.6 °F 100% 29.91 in 10.0 mi SE 3.5 mph - N/A   Mostly Cloudy
1:26 AM 71.6 °F - 71.6 °F 100% 29.91 in 10.0 mi SE 3.5 mph - N/A   Light Drizzle
1:28 AM 71.6 °F - 71.6 °F 100% 29.91 in 10.0 mi SE 3.5 mph - N/A   Mostly Cloudy
1:39 AM 71.6 °F - 71.6 °F 100% 29.91 in 10.0 mi SE 2.3 mph - N/A   Mostly Cloudy
1:49 AM 71.6 °F - 71.6 °F 100% 29.91 in 10.0 mi Variable 1.2 mph - N/A   Overcast
1:58 AM 72.0 °F - 71.1 °F 97% 29.91 in 10.0 mi WNW 3.5 mph - 0.00 in   Overcast
2:33 AM 71.6 °F - 71.6 °F 100% 29.91 in 10.0 mi ENE 3.5 mph - N/A   Scattered Clouds
2:58 AM 71.6 °F - 71.1 °F 98% 29.90 in 10.0 mi ESE 4.6 mph - N/A   Scattered Clouds
3:01 AM 71.6 °F - 71.6 °F 100% 29.90 in 10.0 mi ESE 4.6 mph - N/A   Scattered Clouds
3:03 AM 71.6 °F - 71.6 °F 100% 29.90 in 10.0 mi ESE 3.5 mph - N/A Rain Light Rain
3:12 AM 71.6 °F - 71.6 °F 100% 29.90 in 10.0 mi East 2.3 mph - N/A   Mostly Cloudy
3:22 AM 71.6 °F - 71.6 °F 100% 29.89 in 10.0 mi East 4.6 mph - N/A   Mostly Cloudy
3:32 AM 71.6 °F - 71.6 °F 100% 29.90 in 10.0 mi ESE 4.6 mph - N/A   Overcast
3:42 AM 71.6 °F - 71.6 °F 100% 29.89 in 10.0 mi ESE 5.8 mph - N/A   Overcast
3:47 AM 71.6 °F - 71.6 °F 100% 29.89 in 10.0 mi ESE 5.8 mph - N/A   Mostly Cloudy
3:58 AM 71.4 °F - 70.9 °F 98% 29.90 in 10.0 mi ENE 1.2 mph - 0.00 in   Mostly Cloudy
4:58 AM 71.4 °F - 70.5 °F 97% 29.90 in 10.0 mi West 2.3 mph - N/A   Mostly Cloudy
5:58 AM 70.9 °F - 70.0 °F 97% 29.91 in 10.0 mi Calm Calm - N/A   Partly Cloudy
6:58 AM 72.3 °F - 71.1 °F 96% 29.93 in 10.0 mi Calm Calm - N/A   Mostly Cloudy
7:28 AM 73.4 °F - 71.6 °F 94% 29.94 in 10.0 mi Calm Calm - N/A   Scattered Clouds
7:58 AM 74.8 °F - 72.3 °F 92% 29.94 in 10.0 mi Variable 3.5 mph - N/A   Scattered Clouds
8:08 AM 73.4 °F - 71.6 °F 94% 29.94 in 10.0 mi West 3.5 mph - N/A   Mostly Cloudy
8:53 AM 77.0 °F - 73.4 °F 89% 29.95 in 10.0 mi WSW 5.8 mph - N/A   Overcast
8:58 AM 77.0 °F - 73.4 °F 89% 29.95 in 10.0 mi Variable 2.3 mph - N/A   Overcast
9:03 AM 77.0 °F - 73.4 °F 89% 29.95 in 10.0 mi WSW 3.5 mph - N/A   Mostly Cloudy
9:08 AM 77.0 °F - 73.4 °F 89% 29.95 in 10.0 mi Variable 2.3 mph - N/A   Mostly Cloudy
9:28 AM 78.8 °F - 71.6 °F 78% 29.96 in 10.0 mi WNW 3.5 mph - N/A   Mostly Cloudy
9:48 AM 80.6 °F 84.6 °F 71.6 °F 74% 29.96 in 10.0 mi WNW 5.8 mph - N/A   Overcast
9:53 AM 78.8 °F - 71.6 °F 78% 29.96 in 10.0 mi NW 6.9 mph - N/A   Mostly Cloudy
9:58 AM 80.1 °F 83.8 °F 72.0 °F 76% 29.96 in 10.0 mi WNW 6.9 mph - N/A   Mostly Cloudy
10:38 AM 80.6 °F 84.6 °F 71.6 °F 74% 29.96 in 10.0 mi Variable 2.3 mph - N/A   Scattered Clouds
10:43 AM 80.6 °F 84.6 °F 71.6 °F 74% 29.96 in 10.0 mi WNW 8.1 mph - N/A   Mostly Cloudy
10:58 AM 80.6 °F 84.6 °F 71.6 °F 74% 29.97 in 10.0 mi NW 5.8 mph - N/A   Scattered Clouds
11:58 AM 84.7 °F 90.4 °F 71.6 °F 65% 29.94 in 10.0 mi North 8.1 mph - N/A   Scattered Clouds
12:58 PM 84.9 °F 88.8 °F 69.1 °F 59% 29.93 in 10.0 mi Variable 3.5 mph - N/A   Mostly Cloudy
1:58 PM 86.4 °F 90.7 °F 69.4 °F 57% 29.91 in 10.0 mi NW 4.6 mph - N/A   Mostly Cloudy
2:58 PM 87.1 °F 92.0 °F 70.0 °F 57% 29.89 in 10.0 mi Variable 4.6 mph - N/A   Mostly Cloudy
3:58 PM 87.4 °F 91.9 °F 69.6 °F 55% 29.88 in 10.0 mi ESE 5.8 mph - N/A   Mostly Cloudy
4:23 PM 84.2 °F 90.9 °F 73.4 °F 70% 29.88 in 1.8 mi SSE 10.4 mph - N/A   Haze
4:38 PM 84.2 °F 90.9 °F 73.4 °F 70% 29.87 in 10.0 mi SE 10.4 mph - N/A   Mostly Cloudy
4:43 PM 84.2 °F 90.9 °F 73.4 °F 70% 29.88 in 10.0 mi SE 6.9 mph - N/A   Mostly Cloudy
4:48 PM 84.2 °F 90.9 °F 73.4 °F 70% 29.88 in 10.0 mi SSE 8.1 mph - N/A   Mostly Cloudy
4:58 PM 84.7 °F 91.0 °F 72.7 °F 67% 29.87 in 10.0 mi South 8.1 mph - N/A   Mostly Cloudy
5:58 PM 83.3 °F 89.0 °F 72.7 °F 70% 29.88 in 10.0 mi SSE 5.8 mph - N/A   Scattered Clouds
6:58 PM 81.1 °F 85.8 °F 72.7 °F 75% 29.89 in 10.0 mi SSW 3.5 mph - N/A   Clear
7:58 PM 79.3 °F - 73.6 °F 82% 29.90 in 10.0 mi SE 3.5 mph - N/A   Clear
9:58 PM 76.5 °F - 72.7 °F 88% 29.95 in 10.0 mi ENE 1.2 mph - N/A   Clear
10:58 PM 76.3 °F - 72.9 °F 89% 29.95 in 10.0 mi East 2.3 mph - N/A   Clear
11:58 PM 74.3 °F - 73.0 °F 96% 29.95 in 10.0 mi SE 2.3 mph - N/A   Clear